Hourly Data Report for July 12, 2021

FLIN FLON
MANITOBA
Current Station Operator: ECCC - MSC

54°41'00.000" N
101°41'00.000" W
303.90 m
5050919
71954
WFO

Download Data

Hourly Data (July 2021)
Hourly Data Report for July 12, 2021
TIME
LST
Temp Definition
°C
Dew Point Definition
°C
Rel Hum Definition
%
Precip. Amount Definition
mm

Wind Dir Definition
10's deg

Wind Spd Definition
km/h
Visibility Definition
km
Stn Press Definition
kPa
Hmdx Definition


Wind Chill Definition


Weather Definition


00:00 21.2 12.8 59 0.0   0   97.15     LegendNANA
01:00 22.5 17.5 73 0.0 17 9   97.19 28   LegendNANA
02:00 20.8 16.8 78 0.0 22 4   97.14 26   LegendNANA
03:00 19.8 17.5 87 0.0 25 11   97.24     LegendNANA
04:00 17.9 17.1 95 2.7 32 5   97.20     LegendNANA
05:00 17.8 14.7 82 0.0 2 17   97.17     LegendNANA
06:00 17.7 14.9 84 0.0 34 12   97.24     LegendNANA
07:00 18.6 15.0 80 0.0 33 13   97.29     LegendNANA
08:00 18.0 14.0 77 0.0 29 13   97.40     LegendNANA
09:00 18.3 13.9 75 0.0 36 12   97.30     LegendNANA
10:00 20.8 14.1 66 0.0 27 15   97.41     LegendNANA
11:00 22.4 14.4 60 0.0 31 11   97.42 26   LegendNANA
12:00 23.8 13.6 53 0.0 33 15   97.42 27   LegendNANA
13:00 23.9 13.2 51 0.0 34 19   97.44 27   LegendNANA
14:00 25.4 12.3 44 0.0 34 20   97.46 28   LegendNANA
15:00 24.9 12.1 45 0.0 35 21   97.51 27   LegendNANA
16:00 23.9 10.9 44 0.0 1 23   97.59 26   LegendNANA
17:00 23.3 10.8 45 0.0 36 22   97.63 25   LegendNANA
18:00 22.7 9.7 44 0.0 35 17   97.65     LegendNANA
19:00 21.5 9.9 48 0.0 36 16   97.71     LegendNANA
20:00 20.6 10.3 52 0.0 1 13   97.74     LegendNANA
21:00 19.1 10.4 57 0.0 2 8   97.80     LegendNANA
22:00 17.8 10.4 62 0.0 35 5   97.88     LegendNANA
23:00 16.6 10.2 66 0.0 1 6   97.89     LegendNANA

Notes on Data Quality.

Legend

  • E = Estimated
  • M = Missing
  • NA = Not Available*
  • [empty] = Indicates an unobserved value
Date modified: